Weather History for Provincetown, MA

Change the Weather History Date:

Monday, August 5, 2013

  Actual Average Record
Temperature  
Mean Temperature 62 °F -  
Max Temperature 71 °F 75 °F 89 °F (1955)
Min Temperature 53 °F 62 °F 53 °F (2013)
Degree Days  
Heating Degree Days 3    
Growing Degree Days 12 (Base 50)    
Moisture  
Dew Point 52 °F    
Average Humidity 64    
Maximum Humidity 94    
Minimum Humidity 38    
Precipitation  
Precipitation 0.00 in - - ()
Sea Level Pressure  
Sea Level Pressure 29.95 in    
Wind  
Wind Speed 14 mph (NW)    
Max Wind Speed 20 mph    
Max Gust Speed 26 mph    
Visibility 10 miles    
Events      
Averages and records for this station are not official NWS values.
T = Trace of Precipitation, MM = Missing Value Source: NWS Daily Summary

Daily Weather History Graph

Daily Weather History Graph

Search for Another Location

Airport:

Trip Planner

Search our weather history database for the weather conditions in past years. The results will help you decide how hot, cold, wet, or windy it might be!

Date:

Astronomy

Aug. 05, 2013 Rise Set
Actual Time 5:38 AM EDT 7:54 PM EDT
Civil Twilight 5:07 AM EDT 8:25 PM EDT
Nautical Twilight 4:28 AM EDT 9:03 PM EDT
Astronomical Twilight 3:46 AM EDT 9:46 PM EDT
Moon 4:30 AM EDT (8/5) 6:52 PM EDT (8/5)
Length of Visible Light 15h 18m
Length of Day
14h 16m
Waning Crescent, 1% of the Moon is Illuminated
Aug 5
Waning Crescent
Aug 6
New
Aug 14
First Quarter
Aug 20
Full
Aug 28
Last Quarter

Hourly Weather History & Observations

Time (EDT) Temp. Dew Point Humidity Pressure Visibility Wind Dir Wind Speed Gust Speed Precip Events Conditions
12:15 AM 66.2 °F 55.4 °F 68% 29.87 in 10.0 mi NNW 17.3 mph 20.7 mph N/A   Clear
12:35 AM 66.2 °F 55.4 °F 68% 29.87 in 10.0 mi NW 18.4 mph 23.0 mph N/A   Clear
12:55 AM 66.2 °F 53.6 °F 64% 29.87 in 10.0 mi NW 12.7 mph 25.3 mph N/A   Clear
1:15 AM 66.2 °F 55.4 °F 68% 29.87 in 10.0 mi NW 16.1 mph 21.9 mph N/A   Clear
1:35 AM 66.2 °F 55.4 °F 68% 29.87 in 10.0 mi NW 18.4 mph 26.5 mph N/A   Clear
1:55 AM 64.4 °F 55.4 °F 73% 29.87 in 10.0 mi NW 18.4 mph 24.2 mph N/A   Clear
2:15 AM 64.4 °F 55.4 °F 73% 29.87 in 10.0 mi NW 16.1 mph 24.2 mph N/A   Clear
2:35 AM 64.4 °F 55.4 °F 73% 29.87 in 10.0 mi NW 18.4 mph 24.2 mph N/A   Clear
2:55 AM 64.4 °F 53.6 °F 68% 29.87 in 10.0 mi NW 17.3 mph 23.0 mph N/A   Clear
3:15 AM 64.4 °F 55.4 °F 73% 29.88 in 10.0 mi NW 16.1 mph 24.2 mph N/A   Clear
3:35 AM 64.4 °F 55.4 °F 73% 29.89 in 10.0 mi NW 15.0 mph 21.9 mph N/A   Clear
3:55 AM 64.4 °F 53.6 °F 68% 29.89 in 10.0 mi NW 17.3 mph 23.0 mph N/A   Clear
4:15 AM 62.6 °F 53.6 °F 72% 29.89 in 10.0 mi NW 15.0 mph 23.0 mph N/A   Clear
4:35 AM 62.6 °F 53.6 °F 72% 29.89 in 10.0 mi NW 15.0 mph 23.0 mph N/A   Clear
4:55 AM 62.6 °F 53.6 °F 72% 29.90 in 10.0 mi NW 12.7 mph 21.9 mph N/A   Clear
5:15 AM 62.6 °F 53.6 °F 72% 29.91 in 10.0 mi NW 13.8 mph 19.6 mph N/A   Clear
5:35 AM 62.6 °F 53.6 °F 72% 29.92 in 10.0 mi NW 13.8 mph 21.9 mph N/A   Clear
5:55 AM 62.6 °F 53.6 °F 72% 29.92 in 10.0 mi NW 17.3 mph 23.0 mph N/A   Clear
6:15 AM 62.6 °F 53.6 °F 72% 29.93 in 10.0 mi NW 16.1 mph 23.0 mph N/A   Clear
6:35 AM 62.6 °F 55.4 °F 77% 29.93 in 10.0 mi NW 15.0 mph 21.9 mph N/A   Clear
6:55 AM 62.6 °F 53.6 °F 72% 29.93 in 10.0 mi NW 16.1 mph 23.0 mph N/A   Clear
7:15 AM 64.4 °F 55.4 °F 73% 29.94 in 10.0 mi NW 17.3 mph 21.9 mph N/A   Clear
7:35 AM 64.4 °F 55.4 °F 73% 29.95 in 10.0 mi NW 16.1 mph 21.9 mph N/A   Clear
7:55 AM 64.4 °F 53.6 °F 68% 29.95 in 10.0 mi NW 16.1 mph 23.0 mph N/A   Clear
8:15 AM 64.4 °F 55.4 °F 73% 29.95 in 10.0 mi NW 19.6 mph 24.2 mph N/A   Clear
8:35 AM 64.4 °F 53.6 °F 68% 29.95 in 10.0 mi NW 13.8 mph 24.2 mph N/A   Clear
8:55 AM 64.4 °F 53.6 °F 68% 29.95 in 10.0 mi NW 13.8 mph 24.2 mph N/A   Clear
9:15 AM 66.2 °F 55.4 °F 68% 29.95 in 10.0 mi NW 16.1 mph 24.2 mph N/A   Clear
9:35 AM 66.2 °F 53.6 °F 64% 29.95 in 10.0 mi NW 18.4 mph 24.2 mph N/A   Clear
9:55 AM 66.2 °F 53.6 °F 64% 29.96 in 10.0 mi NW 16.1 mph 21.9 mph N/A   Clear
10:15 AM 66.2 °F 53.6 °F 64% 29.96 in 10.0 mi NW 17.3 mph 21.9 mph N/A   Clear
10:35 AM 66.2 °F 53.6 °F 64% 29.96 in 10.0 mi WNW 16.1 mph 21.9 mph N/A   Clear
10:55 AM 66.2 °F 53.6 °F 64% 29.96 in 10.0 mi NW 16.1 mph 23.0 mph N/A   Clear
11:15 AM 68.0 °F 53.6 °F 60% 29.96 in 10.0 mi NW 15.0 mph - N/A   Clear
11:35 AM 68.0 °F 51.8 °F 56% 29.96 in 10.0 mi NW 16.1 mph 21.9 mph N/A   Clear
11:55 AM 69.8 °F 51.8 °F 53% 29.96 in 10.0 mi NW 15.0 mph 20.7 mph N/A   Clear
12:15 PM 69.8 °F 51.8 °F 53% 29.96 in 10.0 mi NW 13.8 mph 21.9 mph N/A   Clear
12:35 PM 69.8 °F 50.0 °F 49% 29.96 in 10.0 mi NW 16.1 mph 20.7 mph N/A   Clear
12:55 PM 69.8 °F 50.0 °F 49% 29.97 in 10.0 mi NW 15.0 mph 21.9 mph N/A   Clear
1:15 PM 69.8 °F 46.4 °F 43% 29.96 in 10.0 mi NW 15.0 mph 21.9 mph N/A   Clear
1:35 PM 69.8 °F 46.4 °F 43% 29.96 in 10.0 mi NW 15.0 mph 19.6 mph N/A   Clear
1:55 PM 69.8 °F 48.2 °F 46% 29.96 in 10.0 mi NNW 11.5 mph - N/A   Clear
2:15 PM 69.8 °F 48.2 °F 46% 29.96 in 10.0 mi NW 11.5 mph - N/A   Clear
2:35 PM 69.8 °F 48.2 °F 46% 29.96 in 10.0 mi NW 11.5 mph 16.1 mph N/A   Clear
2:55 PM 69.8 °F 48.2 °F 46% 29.96 in 10.0 mi NW 13.8 mph - N/A   Clear
3:15 PM 69.8 °F 48.2 °F 46% 29.96 in 10.0 mi NNW 8.1 mph - N/A   Clear
3:35 PM 69.8 °F 48.2 °F 46% 29.96 in 10.0 mi NNW 8.1 mph - N/A   Clear
3:55 PM 69.8 °F 48.2 °F 46% 29.96 in 10.0 mi NNW 9.2 mph - N/A   Clear
4:15 PM 69.8 °F 48.2 °F 46% 29.96 in 10.0 mi NNW 8.1 mph - N/A   Clear
4:35 PM 69.8 °F 46.4 °F 43% 29.96 in 10.0 mi North 5.8 mph - N/A   Clear
4:55 PM 69.8 °F 48.2 °F 46% 29.97 in 10.0 mi North 4.6 mph - N/A   Clear
5:15 PM 69.8 °F 44.6 °F 40% 29.96 in 10.0 mi North 5.8 mph - N/A   Clear
5:35 PM 69.8 °F 48.2 °F 46% 29.97 in 10.0 mi North 5.8 mph - N/A   Clear
5:55 PM 71.6 °F 46.4 °F 41% 29.97 in 10.0 mi Calm Calm - N/A   Clear
6:15 PM 71.6 °F 44.6 °F 38% 29.97 in 10.0 mi Calm Calm - N/A   Clear
6:35 PM 69.8 °F 46.4 °F 43% 29.98 in 10.0 mi SW 3.5 mph - N/A   Clear
6:55 PM 68.0 °F 46.4 °F 46% 29.99 in 10.0 mi SW 5.8 mph - N/A   Clear
7:15 PM 66.2 °F 46.4 °F 49% 30.00 in 10.0 mi SSW 5.8 mph - N/A   Clear
7:35 PM 66.2 °F 51.8 °F 60% 30.00 in 10.0 mi South 5.8 mph - N/A   Clear
7:55 PM 64.4 °F 51.8 °F 64% 30.01 in 10.0 mi SSW 5.8 mph - N/A   Clear
8:15 PM 62.6 °F 51.8 °F 68% 30.01 in 10.0 mi South 4.6 mph - N/A   Clear
8:35 PM 60.8 °F 51.8 °F 72% 30.02 in 10.0 mi South 5.8 mph - N/A   Clear
8:55 PM 59.0 °F 51.8 °F 77% 30.03 in 10.0 mi South 4.6 mph - N/A   Clear
9:15 PM 60.8 °F 53.6 °F 77% 30.03 in 10.0 mi South 3.5 mph - N/A   Clear
9:35 PM 60.8 °F 53.6 °F 77% 30.04 in 10.0 mi SSW 5.8 mph - N/A   Clear
9:55 PM 57.2 °F 51.8 °F 82% 30.04 in 10.0 mi South 4.6 mph - N/A   Clear
10:15 PM 57.2 °F 53.6 °F 88% 30.04 in 10.0 mi Calm Calm - N/A   Clear
10:35 PM 55.4 °F 51.8 °F 88% 30.04 in 10.0 mi SSW 3.5 mph - N/A   Clear
10:55 PM 55.4 °F 51.8 °F 88% 30.04 in 10.0 mi Calm Calm - N/A   Clear
11:15 PM 53.6 °F 51.8 °F 94% 30.04 in 10.0 mi Calm Calm - N/A   Clear
11:35 PM 55.4 °F 51.8 °F 88% 30.04 in 10.0 mi NW 4.6 mph - N/A   Clear
11:55 PM 53.6 °F 48.2 °F 82% 30.05 in 10.0 mi Calm Calm - N/A   Clear